Douglas, WY

6:36 AM MDT on May 27, 2017 (GMT -0600)
Converse County

Weather History for KDGW - December, 2011

Change the Weather History Date:

Tuesday, December 20, 2011

  Actual Average Record
Temperature  
Mean Temperature 27 °F 23 °F  
Max Temperature 47 °F 37 °F 61 °F (2003)
Min Temperature 6 °F 10 °F -9 °F (2008)
Degree Days  
Heating Degree Days 38 42  
Month to date heating degree days 866 815  
Since 1 July heating degree days 2492 2637  
Cooling Degree Days 0 0  
Month to date cooling degree days 0 0  
Year to date cooling degree days 641 486  
Moisture  
Dew Point 13 °F    
Average Humidity 58    
Maximum Humidity 91    
Minimum Humidity 25    
Precipitation  
Precipitation 0.00 in 0.02 in 0.02 in (2010)
Month to date precipitation T 0.28  
Year to date precipitation 13.18 13.27  
Sea Level Pressure  
Sea Level Pressure 30.01 in    
Wind  
Wind Speed 6 mph (WNW)    
Max Wind Speed 22 mph    
Max Gust Speed 26 mph    
Visibility 10 miles    
Events      
T = Trace of Precipitation, MM = Missing Value Source: NWS Daily Summary

Daily Weather History Graph

Daily Weather History Graph

Search for Another Location

Airport or City:

Trip Planner

Search our weather history database for the weather conditions in past years. The results will help you decide how hot, cold, wet, or windy it might be!

Date:

Astronomy

Dec. 20, 2011 Rise Set
Actual Time 7:28 AM MST 4:29 PM MST
Civil Twilight 6:55 AM MST 5:02 PM MST
Nautical Twilight 6:20 AM MST 5:38 PM MST
Astronomical Twilight 5:45 AM MST 6:12 PM MST
Moon 2:49 AM MST (12/20) 1:10 PM MST (12/20)
Length of Visible Light 10h 06m
Length of Day
9h 01m
Waning Crescent, 20% of the Moon is Illuminated
Dec 20
Waning Crescent
Dec 24
New
Dec 31
First Quarter
Jan 9
Full
Jan 16
Last Quarter

Hourly Weather History & Observations

Time (MST) Temp. Windchill Dew Point Humidity Pressure Visibility Wind Dir Wind Speed Gust Speed Precip Events Conditions
12:53 AM 9.0 °F - 6.1 °F 88% 30.25 in 10.0 mi Calm Calm - N/A   Clear
1:53 AM 10.0 °F - 6.1 °F 84% 30.24 in 10.0 mi Calm Calm - N/A   Clear
2:53 AM 14.0 °F 3.9 °F 10.0 °F 84% 30.19 in 10.0 mi WNW 6.9 mph - N/A   Clear
3:53 AM 10.9 °F 4.7 °F 7.0 °F 84% 30.15 in 10.0 mi South 3.5 mph - N/A   Clear
5:53 AM 7.0 °F - 1.9 °F 80% 30.15 in 10.0 mi Calm Calm - N/A   Clear
6:53 AM 8.1 °F 1.4 °F 3.9 °F 83% 30.14 in 10.0 mi SSE 3.5 mph - N/A   Clear
7:53 AM 9.0 °F -0.9 °F 6.1 °F 88% 30.12 in 9.0 mi South 5.8 mph - N/A   Clear
8:53 AM 16.0 °F - 12.9 °F 88% 30.07 in 10.0 mi Calm Calm - N/A   Clear
9:53 AM 21.0 °F - 18.0 °F 88% 30.05 in 10.0 mi Calm Calm - N/A   Clear
10:53 AM 27.0 °F - 21.0 °F 78% 30.00 in 10.0 mi Calm Calm - N/A   Clear
11:53 AM 36.0 °F - 23.0 °F 59% 29.93 in 10.0 mi Calm Calm - N/A   Clear
12:53 PM 43.0 °F 38.8 °F 21.9 °F 43% 29.89 in 10.0 mi SSW 6.9 mph - N/A   Clear
1:53 PM 46.9 °F - 12.9 °F 25% 29.83 in 10.0 mi NW 15.0 mph - N/A   Clear
2:53 PM 45.0 °F 37.9 °F 14.0 °F 29% 29.83 in 10.0 mi WNW 16.1 mph - N/A   Clear
4:53 PM 33.1 °F 26.1 °F 15.1 °F 48% 29.92 in 10.0 mi NW 8.1 mph - N/A   Clear
5:53 PM 32.0 °F 24.2 °F 16.0 °F 52% 29.93 in 10.0 mi NW 9.2 mph - N/A   Clear
6:53 PM 30.9 °F 21.7 °F 16.0 °F 54% 29.93 in 10.0 mi NW 11.5 mph - N/A   Clear
7:53 PM 28.0 °F 20.0 °F 16.0 °F 61% 29.95 in 10.0 mi NW 8.1 mph - N/A   Clear
8:53 PM 26.1 °F 18.4 °F 16.0 °F 66% 29.94 in 10.0 mi NW 6.9 mph - N/A   Clear
9:53 PM 25.0 °F 15.5 °F 16.0 °F 69% 29.92 in 10.0 mi NW 9.2 mph - N/A   Clear
10:53 PM 21.0 °F 14.6 °F 14.0 °F 74% 29.90 in 10.0 mi NW 4.6 mph - N/A   Clear
11:53 PM 21.9 °F 14.5 °F 15.1 °F 75% 29.86 in 10.0 mi West 5.8 mph - N/A   Clear